This is the latest recevied weather packets stored in our database for station/object SV4JYD-14. If no packets are shown the sender has not sent any weather packets the latest 10 day(s).
| Time | Temp. | Humidity | Pressure | Rain* | Wind** | Luminosity | Snow |
|---|---|---|---|---|---|---|---|
| 1777997807 | 20.56° C | 43% | 1015 hPa | 0 mm | - | - | - |
| 1777996007 | 21.11° C | 41% | 1015 hPa | 0 mm | - | - | - |
| 1777995107 | 21.11° C | 38% | 1015 hPa | 0 mm | - | - | - |
| 1777994207 | 21.67° C | 38% | 1015 hPa | 0 mm | - | - | - |
| 1777993307 | 20.56° C | 39% | 1015 hPa | 0 mm | - | - | - |
| 1777992405 | 20.56° C | 39% | 1015 hPa | 0 mm | - | - | - |
| 1777991505 | 21.11° C | 38% | 1015 hPa | 0 mm | - | - | - |
| 1777990604 | 20.56° C | 39% | 1016 hPa | 0 mm | - | - | - |
| 1777989704 | 20.56° C | 41% | 1015 hPa | 0 mm | - | - | - |
| 1777988804 | 21.11° C | 43% | 1015 hPa | 0 mm | - | - | - |
| 1777987903 | 21.11° C | 38% | 1015 hPa | 0 mm | - | - | - |
| 1777987003 | 21.11° C | 37% | 1016 hPa | 0 mm | - | - | - |
| 1777986103 | 20.56° C | 41% | 1016 hPa | 0 mm | - | - | - |
| 1777985203 | 20° C | 38% | 1016 hPa | 0 mm | - | - | - |
| 1777984302 | 21.11° C | 37% | 1016 hPa | 0 mm | - | - | - |
| 1777983402 | 20.56° C | 33% | 1016 hPa | 0 mm | - | - | - |
| 1777982502 | 21.11° C | 33% | 1016 hPa | 0 mm | - | - | - |
| 1777981602 | 21.11° C | 33% | 1016 hPa | 0 mm | - | - | - |
| 1777980701 | 20.56° C | 31% | 1016 hPa | 0 mm | - | - | - |
| 1777979801 | 20.56° C | 30% | 1017 hPa | 0 mm | - | - | - |
| 1777978901 | 20.56° C | 29% | 1016 hPa | 0 mm | - | - | - |
| 1777978001 | 20.56° C | 30% | 1016 hPa | 0 mm | - | - | - |
| 1777977100 | 20° C | 29% | 1016 hPa | 0 mm | - | - | - |
| 1777976200 | 20° C | 30% | 1017 hPa | 0 mm | - | - | - |
| 1777975299 | 20° C | 30% | 1017 hPa | 0 mm | - | - | - |
* Rain latest hour (hover to see other rain measurements)
** Current wind speed in m/s (hover to see current wind gust speed)